Location: Bayview
(38.0070°N, 122.3188°W)
Time: 17:30:01
(UTC+00:00)

USA 238 - Pass Details

Date: 29 June 2022
Orbit: 967 x 1245 km, 63.4° (Epoch: 09 August)

Event Time Altitude Azimuth Distance (km) Brightness Sun altitude
Exits shadow 12:12:21 - 243° (WSW) 2,936 5.3 -6.9°
Reaches altitude 10° 12:12:58 10° 246° (WSW) 2,736 5.2 -6.8°
Maximum altitude 12:18:52 38° 313° (NW) 1,510 4.5 -5.9°
Drops below altitude 10° 12:25:07 10° 20° (NNE) 2,891 6.9 -4.9°
Sets 12:28:05 0° 28° (NNE) 3,894 7.9 -4.4°
